TimeEDT,TemperatureF,Dew PointF,Humidity,Sea Level PressureIn,VisibilityMPH,Wind Direction,Wind SpeedMPH,Gust SpeedMPH,PrecipitationIn,Events,Conditions,WindDirDegrees,DateUTC
12:56 AM,57.9,48.9,72,30.11,10.0,WSW,4.6,-,N/A,,Clear,250,2012-10-05 04:56:00
1:56 AM,57.0,48.9,74,30.10,10.0,WSW,5.8,-,N/A,,Clear,240,2012-10-05 05:56:00
2:56 AM,55.9,48.9,77,30.10,10.0,SW,6.9,-,N/A,,Clear,230,2012-10-05 06:56:00
3:56 AM,57.0,50.0,77,30.09,10.0,SW,6.9,-,N/A,,Clear,230,2012-10-05 07:56:00
4:56 AM,57.0,50.0,77,30.08,10.0,WSW,9.2,-,N/A,,Clear,240,2012-10-05 08:56:00
5:56 AM,55.9,50.0,80,30.08,10.0,SW,5.8,-,N/A,,Clear,220,2012-10-05 09:56:00
6:56 AM,55.9,50.0,80,30.07,10.0,SW,8.1,-,N/A,,Clear,230,2012-10-05 10:56:00
7:56 AM,57.0,51.1,81,30.08,10.0,SW,9.2,-,N/A,,Scattered Clouds,230,2012-10-05 11:56:00
8:56 AM,60.1,52.0,75,30.08,10.0,WSW,8.1,16.1,N/A,,Mostly Cloudy,240,2012-10-05 12:56:00
9:56 AM,62.1,53.1,72,30.07,10.0,SW,12.7,-,N/A,,Clear,230,2012-10-05 13:56:00
10:56 AM,64.9,54.0,68,30.06,10.0,WSW,8.1,19.6,N/A,,Mostly Cloudy,240,2012-10-05 14:56:00
11:56 AM,69.1,55.0,61,30.04,10.0,WSW,13.8,18.4,N/A,,Scattered Clouds,250,2012-10-05 15:56:00
12:56 PM,69.1,54.0,58,30.03,10.0,SW,11.5,16.1,N/A,,Mostly Cloudy,220,2012-10-05 16:56:00
1:56 PM,70.0,54.0,57,30.01,10.0,West,11.5,20.7,N/A,,Overcast,260,2012-10-05 17:56:00
2:56 PM,66.9,54.0,63,30.01,10.0,WSW,10.4,-,0.00,Rain,Light Rain,240,2012-10-05 18:56:00
3:56 PM,66.0,54.0,65,30.00,10.0,West,8.1,-,0.00,,Overcast,270,2012-10-05 19:56:00
4:56 PM,62.1,55.9,80,30.01,9.0,Calm,Calm,-,0.00,Rain,Light Rain,0,2012-10-05 20:56:00
5:03 PM,62.6,57.2,82,30.01,9.0,Calm,Calm,-,0.00,Rain,Light Rain,0,2012-10-05 21:03:00
5:56 PM,61.0,57.0,87,29.99,8.0,SW,4.6,-,0.02,,Overcast,230,2012-10-05 21:56:00
6:56 PM,60.1,54.0,80,29.99,10.0,WSW,9.2,-,N/A,,Mostly Cloudy,240,2012-10-05 22:56:00
7:56 PM,59.0,55.0,87,29.98,10.0,SW,4.6,-,N/A,,Overcast,220,2012-10-05 23:56:00
8:56 PM,59.0,54.0,83,29.96,10.0,Calm,Calm,-,N/A,,Overcast,0,2012-10-06 00:56:00
9:56 PM,59.0,54.0,83,29.93,10.0,SSW,4.6,-,N/A,,Overcast,210,2012-10-06 01:56:00
10:56 PM,60.1,54.0,80,29.90,10.0,SSE,5.8,-,N/A,,Overcast,160,2012-10-06 02:56:00
11:56 PM,60.1,54.0,80,29.87,10.0,South,4.6,-,N/A,,Overcast,170,2012-10-06 03:56:00